Flag for Croatia Weather past 2 weeks in Dubrovnik, Croatia

Now
36 °F

Passing clouds.


Feels Like: 21 °F
Forecast: 22 / 29 °F
Wind: 41 mph from Northeast

Location: Dubrovnik / Cilipi

Current Time: Dec 29, 2014 at 10:43:39 AM

Latest Report: Dec 29, 2014 at 10:00 AM


Visibility: N/A

Pressure: 29.86 "Hg

Humidity: 41%

Dew point: 14 °F

Location of DubrovnikLocation

Historic Weather in Dubrovnik — Graph

°F

Dubrovnik temperature yesterday

Maximum temperature yesterday: 52 °F (at 9:30 AM)
Minimum temperature yesterday: 37 °F (at 3:00 AM)
Average temperature yesterday: 45 °F

Past Weeks' High & Low Weather Summary

 TemperatureHumidityPressure
High61 °F (Dec 14, 12:30 PM)100% (Dec 16, 8:30 AM)30.48 "Hg (Dec 16, 8:30 AM)
Low36 °F (Dec 27, 7:00 AM)22% (Dec 21, 3:00 PM)29.39 "Hg (Dec 28, 4:00 PM)
Average50 °F69%30.10 "Hg
* Reported Dec 14 9:00 AM — Dec 29 9:30 AM, Dubrovnik, Weather by CustomWeather, © 2014

Note: Actual official high and low records may vary slightly from our data, if they occured in-between our weather recording intervals... More about our weather records

Advertising

Dubrovnik weather history for previous 24 hours

 ConditionsComfort  
Time TempWeatherWind HumidityBarometerVisibility
9:30 AM
Dec 29
36 °FPassing clouds.43 mph41%29.86 "HgN/A
9:00 AM36 °FPassing clouds.45 mph41%29.83 "HgN/A
8:30 AM36 °FPassing clouds.44 mph41%29.80 "HgN/A
8:00 AM37 °FPassing clouds.45 mph38%29.77 "HgN/A
7:30 AM37 °FPassing clouds.45 mph41%29.77 "HgN/A
7:00 AM37 °FPassing clouds.43 mph41%29.74 "HgN/A
6:30 AM37 °FPassing clouds.41 mph38%29.71 "HgN/A
6:00 AM37 °FPassing clouds.41 mph41%29.71 "HgN/A
5:30 AM37 °FClear.44 mph41%29.68 "Hg10 mi
5:00 AM37 °FPassing clouds.43 mph41%29.65 "HgN/A
4:30 AM37 °FPassing clouds.44 mph45%29.62 "HgN/A
4:00 AM37 °FPassing clouds.45 mph45%29.62 "HgN/A
3:30 AM39 °FPassing clouds.41 mph42%29.59 "HgN/A
3:00 AM39 °FPassing clouds.41 mph42%29.59 "HgN/A
2:30 AM39 °FPassing clouds.40 mph42%29.56 "HgN/A
2:00 AM39 °FClear.41 mph45%29.56 "Hg10 mi
1:30 AM39 °FPassing clouds.41 mph45%29.53 "HgN/A
1:00 AM37 °FPassing clouds.43 mph52%29.50 "HgN/A
12:30 AM39 °FPassing clouds.43 mph48%29.50 "HgN/A
12:00 AM37 °FPassing clouds.43 mph56%29.50 "HgN/A
11:30 PM
Dec 28
37 °FPassing clouds.43 mph60%29.47 "HgN/A
11:00 PM37 °FPassing clouds.41 mph70%29.47 "HgN/A
10:30 PM37 °FLight rain. Passing clouds.39 mph75%29.47 "HgN/A
10:00 PM37 °FLight rain. Passing clouds.38 mph81%29.47 "HgN/A
9:30 PM39 °FLight rain. Passing clouds.37 mph81%29.45 "HgN/A
9:00 PM41 °FLight rain. Passing clouds.29 mph76%29.45 "HgN/A
8:30 PM43 °FLight rain. Passing clouds.30 mph76%29.45 "HgN/A
8:00 PM45 °FPassing clouds.22 mph76%29.42 "HgN/A
7:30 PM45 °FPassing clouds.10 mph81%29.42 "HgN/A
7:00 PM45 °FPassing clouds.9 mph87%29.42 "HgN/A
6:30 PM46 °FPassing clouds.13 mph82%29.42 "HgN/A
6:00 PM46 °FPassing clouds.17 mph82%29.42 "HgN/A
5:30 PM46 °FLight rain. Passing clouds.12 mph82%29.42 "HgN/A
5:00 PM48 °FLight rain. Passing clouds.14 mph87%29.39 "HgN/A
4:30 PM48 °FPassing clouds.2 mph94%29.42 "HgN/A
4:00 PM52 °FPartly sunny.8 mph72%29.39 "HgN/A
3:30 PM52 °FBroken clouds.9 mph72%29.42 "HgN/A
3:00 PM52 °FPartly sunny.7 mph77%29.42 "HgN/A
2:30 PM50 °FLight rain. Partly sunny.13 mph76%29.42 "HgN/A
2:00 PM52 °FPartly sunny.10 mph77%29.42 "HgN/A
1:30 PM52 °FPartly sunny.10 mph82%29.42 "HgN/A
1:00 PM52 °FPartly sunny.12 mph82%29.42 "HgN/A
12:30 PM48 °FHeavy rain. Broken clouds.17 mph87%29.45 "Hg3 mi
12:00 PM52 °FLight rain. Broken clouds.14 mph77%29.42 "HgN/A
11:30 AM50 °FLight rain. Broken clouds.15 mph82%29.45 "Hg4 mi
11:00 AM52 °FBroken clouds.13 mph82%29.42 "HgN/A
10:30 AM52 °FBroken clouds.13 mph82%29.45 "HgN/A
10:00 AM52 °FBroken clouds.15 mph77%29.45 "HgN/A
Weather by CustomWeather, © 2014

See weather overviewHow to use our weather pages